Date String (YYYY-MM-DD hh:mm:ss) UTC,Instrument flags,absolute air pressure of the measurement (hPa),sample flow rate (lpm),inlet stack bypass flow (lpm),air temperature of the measurement (°C),ambient temperature measured by the external sensor (°C),aerosol sample conditioner tube jacket temperature (°C),OPC LED temperature (°C),internal box temperature (°C),relative humidity of the measurement (%),span deviation,mass concentration of particles derived from Lorenz-Mie calculation of OPC scattering (μg/m³),mass concentration of particles derived from Lorenz-Mie calculation of OPC scattering (μg/m³),mass concentration of particles derived from Lorenz-Mie calculation of OPC scattering (μg/m³)
DateTimeUTC,F1_M11,P_M11,Q1_M11,Q2_M11,T1_M11,T2_M11,T3_M11,T4_M11,T5_M11,U1_M11,ZSPAN_M11,X0_M11,X2_M11,X1_M11
2024-06-17 23:00:00,SystemResetWarning,0814.7,5.01,000.00,029.0,028.6,000.0,037.2,031.0,035.0,0003.8,0040.85,0010.26,0007.65
2024-06-17 23:01:00,SystemResetWarning,0814.7,5.00,000.00,029.1,028.8,000.0,037.2,031.1,034.3,0003.8,0040.34,0010.31,0007.67
2024-06-17 23:02:00,SystemResetWarning,0814.6,4.99,000.00,029.2,028.5,000.0,037.3,030.9,034.3,0004.1,0040.20,0010.37,0007.70
2024-06-17 23:03:00,SystemResetWarning,0814.5,4.99,000.00,029.0,026.5,000.0,037.3,030.0,034.6,0003.7,0038.94,0010.36,0007.71
2024-06-17 23:04:00,SystemResetWarning,0814.4,5.01,000.00,028.6,025.5,000.0,037.3,029.5,035.9,0003.8,0038.32,0010.41,0007.74
2024-06-17 23:05:00,SystemResetWarning,0814.4,5.02,000.00,028.5,025.9,000.0,037.3,029.6,035.9,0003.9,0038.11,0010.40,0007.75
2024-06-17 23:06:00,SystemResetWarning,0814.4,5.00,000.00,028.5,026.4,000.0,037.2,029.9,035.3,0003.8,0039.52,0010.38,0007.76
2024-06-17 23:07:00,SystemResetWarning,0814.4,5.00,000.00,028.6,026.9,000.0,037.1,030.2,035.3,0003.6,0039.35,0010.38,0007.76
2024-06-17 23:08:00,SystemResetWarning,0814.4,5.00,000.00,028.7,027.3,000.0,037.1,030.4,035.3,0001.0,0040.41,0010.45,0007.75
2024-06-17 23:09:00,SystemResetWarning,0814.3,4.99,000.00,028.7,027.7,000.0,037.1,030.6,035.3,0002.6,0040.13,0010.44,0007.73
2024-06-17 23:10:00,SystemResetWarning,0814.3,5.00,000.00,028.8,028.1,000.0,037.1,030.7,034.9,0002.4,0038.54,0010.32,0007.70
2024-06-17 23:11:00,SystemResetWarning,0814.3,5.00,000.00,028.9,028.4,000.0,037.1,030.9,034.4,0002.4,0038.30,0010.20,0007.66
2024-06-17 23:12:00,SystemResetWarning,0814.3,5.00,000.00,029.0,028.6,000.0,037.2,031.0,034.3,0002.5,0035.62,0010.15,0007.64
2024-06-17 23:13:00,SystemResetWarning,0814.3,5.00,000.00,029.1,028.8,000.0,037.2,031.1,033.9,0002.2,0035.10,0010.06,0007.62
2024-06-17 23:14:00,SystemResetWarning,0814.3,4.98,000.00,029.1,028.0,000.0,037.3,030.7,034.0,0001.0,0034.81,0009.98,0007.59
2024-06-17 23:15:00,SystemResetWarning,0814.2,5.00,000.00,028.8,026.0,000.0,037.3,029.7,035.0,0001.1,0034.07,0009.88,0007.56
2024-06-17 23:16:00,SystemResetWarning,0814.1,5.02,000.00,028.5,025.4,000.0,037.3,029.4,035.2,0001.1,0034.25,0009.79,0007.53
2024-06-17 23:17:00,SystemResetWarning,0814.1,5.00,000.00,028.5,025.9,000.0,037.2,029.6,035.3,0002.3,0032.76,0009.74,0007.50
2024-06-17 23:18:00,SystemResetWarning,0814.1,5.00,000.00,028.5,026.4,000.0,037.1,029.9,035.4,0001.5,0031.28,0009.67,0007.45
2024-06-17 23:19:00,SystemResetWarning,0814.1,5.01,000.00,028.6,026.9,000.0,037.1,030.2,035.3,0001.5,0031.13,0009.55,0007.40
2024-06-17 23:20:00,SystemResetWarning,0814.1,5.00,000.00,028.6,027.4,000.0,037.0,030.4,035.0,0002.3,0030.61,0009.48,0007.35
2024-06-17 23:21:00,SystemResetWarning,0814.1,5.00,000.00,028.7,027.8,000.0,037.0,030.6,035.3,0001.9,0029.76,0009.41,0007.28
2024-06-17 23:22:00,SystemResetWarning,0814.1,4.99,000.00,028.8,028.1,000.0,037.1,030.7,035.1,0001.5,0030.03,0009.37,0007.23
2024-06-17 23:23:00,SystemResetWarning,0814.1,5.00,000.00,028.9,028.4,000.0,037.1,030.9,034.4,0001.4,0030.10,0009.30,0007.17
2024-06-17 23:24:00,SystemResetWarning,0814.0,5.01,000.00,029.0,028.6,000.0,037.1,031.0,034.0,0001.5,0029.24,0009.27,0007.11
2024-06-17 23:25:00,SystemResetWarning,0814.0,5.00,000.00,029.1,028.8,000.0,037.2,031.1,033.9,0001.0,0028.14,0009.24,0007.06
2024-06-17 23:26:00,SystemResetWarning,0814.0,4.99,000.00,029.2,028.5,000.0,037.3,030.9,034.3,0000.6,0026.70,0009.23,0006.98
2024-06-17 23:27:00,SystemResetWarning,0813.9,5.00,000.00,028.9,026.4,000.0,037.3,030.0,034.6,0000.8,0027.19,0009.18,0006.92
2024-06-17 23:28:00,SystemResetWarning,0814.0,5.01,000.00,028.6,025.4,000.0,037.3,029.5,035.2,0000.7,0027.35,0009.18,0006.87
2024-06-17 23:29:00,SystemResetWarning,0813.9,5.02,000.00,028.5,025.8,000.0,037.2,029.6,035.4,0001.0,0027.12,0009.12,0006.86
2024-06-17 23:30:00,SystemResetWarning,0813.9,5.00,000.00,028.5,026.3,000.0,037.1,029.8,036.0,0001.4,0026.15,0009.12,0006.86
2024-06-17 23:31:00,SystemResetWarning,0813.9,5.00,000.00,028.5,026.8,000.0,037.1,030.1,035.3,0002.1,0026.21,0009.06,0006.84
2024-06-17 23:32:00,SystemResetWarning,0814.0,4.99,000.00,028.6,027.2,000.0,037.1,030.3,035.4,0002.7,0027.81,0009.11,0006.83
2024-06-17 23:33:00,SystemResetWarning,0813.9,5.00,000.00,028.7,027.6,000.0,037.1,030.5,035.4,0002.5,0027.16,0009.12,0006.83
2024-06-17 23:34:00,SystemResetWarning,0813.9,5.00,000.00,028.8,028.0,000.0,037.1,030.7,035.3,0000.0,0028.38,0009.17,0006.83
2024-06-17 23:35:00,SystemResetWarning,0813.9,5.00,000.00,028.9,028.3,000.0,037.1,030.8,035.3,0000.0,0031.31,0009.15,0006.82
2024-06-17 23:36:00,SystemResetWarning,0813.9,5.00,000.00,029.0,028.6,000.0,037.1,030.9,034.6,0000.0,0034.39,0009.19,0006.80
2024-06-17 23:37:00,SystemResetWarning,0813.9,5.00,000.00,029.1,028.8,000.0,037.2,031.1,034.3,0000.0,0035.97,0009.17,0006.80
2024-06-17 23:38:00,SystemResetWarning,0813.9,5.00,000.00,029.2,028.9,000.0,037.2,031.2,035.2,0000.0,0035.90,0009.12,0006.80
2024-06-17 23:39:00,SystemResetWarning,0813.8,4.99,000.00,029.2,028.2,000.0,037.3,030.8,034.2,0000.0,0035.40,0009.04,0006.77
2024-06-17 23:40:00,SystemResetWarning,0813.6,5.00,000.00,028.9,026.2,000.0,037.3,029.8,034.4,0000.0,0035.13,0009.02,0006.75
2024-06-17 23:41:00,SystemResetWarning,0813.6,5.01,000.00,028.6,025.6,000.0,037.3,029.5,035.3,0000.0,0035.25,0008.98,0006.73
2024-06-17 23:42:00,SystemResetWarning,0813.6,5.02,000.00,028.5,026.0,000.0,037.3,029.7,035.4,0000.0,0036.47,0008.91,0006.71
2024-06-17 23:43:00,SystemResetWarning,0813.6,4.99,000.00,028.6,026.5,000.0,037.2,030.0,035.5,0000.0,0035.17,0008.76,0006.70
2024-06-17 23:44:00,SystemResetWarning,0813.5,5.00,000.00,028.6,027.0,000.0,037.1,030.2,034.9,0000.0,0035.22,0008.67,0006.66
2024-06-17 23:45:00,SystemResetWarning,0813.6,5.00,000.00,028.7,027.4,000.0,037.1,030.4,035.0,0000.0,0034.54,0008.60,0006.63
2024-06-17 23:46:00,SystemResetWarning,0813.6,5.00,000.00,028.8,027.8,000.0,037.1,030.6,035.2,0000.0,0032.75,0008.54,0006.62
2024-06-17 23:47:00,SystemResetWarning,0813.7,5.00,000.00,028.9,028.1,000.0,037.1,030.8,034.3,0000.0,0031.19,0008.47,0006.60
2024-06-17 23:48:00,SystemResetWarning,0813.7,4.99,000.00,029.0,028.4,000.0,037.1,030.9,034.5,0000.0,0028.13,0008.38,0006.58
2024-06-17 23:49:00,SystemResetWarning,0813.7,5.00,000.00,029.1,028.7,000.0,037.2,031.0,034.1,0000.0,0027.29,0008.33,0006.52
2024-06-17 23:50:00,SystemResetWarning,0813.7,5.00,000.00,029.2,028.9,000.0,037.2,031.1,033.8,0000.0,0026.17,0008.31,0006.49
2024-06-17 23:51:00,SystemResetWarning,0813.7,4.99,000.00,029.3,028.6,000.0,037.3,031.0,033.9,0000.0,0025.81,0008.32,0006.48
2024-06-17 23:52:00,SystemResetWarning,0813.7,5.00,000.00,029.0,026.6,000.0,037.4,030.0,034.4,0000.0,0027.73,0008.31,0006.46
2024-06-17 23:53:00,SystemResetWarning,0813.5,5.01,000.00,028.7,025.5,000.0,037.4,029.4,035.7,0000.0,0025.81,0008.31,0006.43
2024-06-17 23:54:00,SystemResetWarning,0813.6,5.01,000.00,028.5,025.9,000.0,037.3,029.6,036.3,0000.0,0027.03,0008.32,0006.41
2024-06-17 23:55:00,SystemResetWarning,0813.5,4.99,000.00,028.5,026.3,000.0,037.2,029.9,035.5,0000.0,0028.09,0008.38,0006.41
2024-06-17 23:56:00,SystemResetWarning,0813.6,5.00,000.00,028.6,026.8,000.0,037.1,030.1,035.4,0000.0,0030.49,0008.43,0006.42
2024-06-17 23:57:00,SystemResetWarning,0813.6,5.00,000.00,028.7,027.3,000.0,037.1,030.4,035.3,0000.0,0030.47,0008.42,0006.41
2024-06-17 23:58:00,SystemResetWarning,0813.6,5.01,000.00,028.8,027.7,000.0,037.1,030.6,035.1,0000.0,0030.59,0008.47,0006.40
2024-06-17 23:59:00,SystemResetWarning,0813.6,5.00,000.00,028.9,028.0,000.0,037.1,030.7,034.9,0000.0,0031.23,0008.45,0006.39
